Wind_Gust
18 17 18 18 18 19 18 18 18 18 17 17 17 17 17 17 17 17 17 17 17 18 18 18 18 18 19 19 21 22 17 21 22 13 6 24 13 11 15 4 8 21 17 3 5 4 3 3 3 2 4 5 7 5 7 5 6 4 8 8 8 14 10 11 12 9 5 15 15 17 12 13 9 8 10 17 20 18 16 18 17 24 19 22 23 22 22 19
17 17 17 17 18 18 18 18 18 19 19 18 18 17 17 17 17 17 17 17 17 17 17 17 18 18 19 18 20 20 17 18 21 18 29 17 13 15 12 9 10 13 15 6 7 4 7 4 4 4 8 8 2 7 6 9 9 10 7 9 16 10 15 7 6 7 6 14 14 18 15 7 9 1 8 16 4 16 22 19 20 25 19 21 21 20 22 20
17 17 17 18 18 18 18 18 18 18 18 19 19 19 18 18 18 17 17 17 17 17 17 17 17 17 18 18 19 15 18 18 10 13 14 13 21 18 14 16 12 19 18 10 8 11 10 12 7 7 5 6 4 8 4 11 11 11 9 10 19 10 7 7 7 11 10 15 21 16 14 8 6 4 5 8 11 19 24 24 16 22 24 22 21 21 20 20
17 17 18 18 18 18 19 19 19 19 19 19 19 18 19 19 19 19 18 18 17 17 16 16 16 16 17 18 16 14 10 11 8 7 6 2 13 21 18 15 14 13 4 4 11 12 4 6 7 7 7 4 6 4 8 12 12 8 11 15 15 4 10 11 3 9 13 11 13 10 14 19 10 5 9 14 15 4 16 25 29 26 28 24 21 20 22 23
17 17 17 17 18 18 19 19 19 20 19 19 19 18 18 18 18 18 18 18 18 17 16 16 16 16 17 17 17 8 9 9 4 5 7 9 6 18 19 15 16 10 10 6 9 4 5 4 7 6 6 13 3 2 9 6 8 6 13 12 11 5 11 15 11 13 15 16 10 14 12 21 6 5 11 15 14 16 23 18 22 30 33 30 25 22 21 22
17 18 18 18 18 18 19 19 19 19 20 19 19 19 18 18 17 17 17 17 17 17 16 15 15 16 17 17 11 3 4 8 6 12 6 10 8 15 18 17 18 11 8 6 6 5 7 2 6 8 7 6 6 12 7 7 5 12 10 8 9 9 14 9 11 14 7 15 11 10 11 9 5 4 13 11 12 12 13 24 27 29 29 26 28 27 23 21
18 18 18 18 18 18 18 19 19 19 19 19 19 19 18 18 17 17 17 17 16 16 16 15 14 15 15 13 5 3 4 25 12 15 13 9 8 14 19 16 14 11 8 7 5 10 5 5 6 4 6 5 5 11 10 4 3 8 19 6 11 5 12 13 16 16 14 11 20 17 9 13 11 4 6 9 3 11 15 18 16 17 18 23 25 19 23 22
18 18 18 17 17 18 18 18 19 19 19 19 19 19 19 19 18 18 18 18 16 16 15 14 13 13 12 9 4 5 3 20 22 6 4 11 10 16 17 10 13 11 10 10 9 6 8 7 11 6 5 11 7 8 4 6 4 10 15 9 11 9 12 14 14 16 16 17 18 12 13 20 15 7 6 8 14 18 17 19 17 23 24 20 18 18 17 18
18 18 18 18 18 18 18 18 19 19 20 20 20 20 20 19 19 18 18 17 16 16 15 14 13 10 9 3 5 9 17 13 7 4 8 10 11 12 15 15 8 13 10 7 7 7 10 10 6 7 8 5 10 7 8 3 13 12 18 13 9 10 10 10 8 10 14 15 10 10 15 17 12 6 7 6 18 19 20 21 23 23 20 19 18 17 20 19
18 18 18 19 18 18 19 19 19 20 20 20 20 20 19 19 19 18 18 17 16 15 15 12 11 9 4 4 3 7 15 7 5 7 8 11 11 12 6 6 14 10 10 7 6 9 12 14 13 7 3 6 4 11 2 8 14 6 6 7 11 11 11 9 11 13 11 10 5 10 11 18 6 7 4 5 13 21 22 23 22 22 21 17 14 13 12 17
18 18 19 18 19 19 19 20 20 20 20 21 20 20 20 20 19 19 18 18 16 16 13 12 8 8 2 2 4 13 13 4 1 7 12 11 10 11 13 12 12 15 7 5 13 14 9 7 5 4 5 15 2 9 7 11 4 5 9 8 9 11 13 13 8 14 6 14 10 12 16 15 7 4 17 16 14 21 26 24 23 21 18 16 16 15 13 16
18 19 19 19 19 20 20 20 21 21 21 21 21 21 21 20 20 20 19 18 17 15 12 9 9 7 3 3 8 24 5 3 2 5 9 11 9 13 4 6 15 16 14 11 12 12 12 7 5 3 11 5 6 6 10 7 2 6 2 11 11 9 14 7 11 9 7 13 6 13 9 9 4 5 15 19 20 20 25 25 23 19 15 14 15 17 18 19
19 20 20 19 20 21 20 21 22 22 22 22 22 22 22 22 21 21 20 18 14 12 11 7 5 4 3 9 23 22 13 12 11 6 9 4 6 6 8 7 12 9 16 11 11 14 10 6 6 6 10 6 5 12 8 5 7 3 3 6 11 11 14 14 6 6 4 9 8 11 11 12 13 9 14 20 24 19 18 21 19 16 13 12 11 13 9 9
20 20 20 21 21 22 22 22 23 23 23 24 24 23 23 23 24 22 21 18 15 12 8 5 2 4 4 19 21 9 8 12 13 13 12 6 3 10 7 8 10 10 6 7 5 5 9 8 7 8 4 4 14 4 8 10 4 7 8 4 11 7 16 7 7 2 5 7 5 11 13 14 13 13 8 15 23 27 24 20 17 15 14 15 12 13 13 12
20 21 22 22 22 23 23 24 23 24 24 24 25 25 25 26 24 22 20 14 11 8 6 4 1 5 5 26 12 16 22 8 9 14 13 7 9 10 8 7 10 13 14 9 7 3 7 8 3 6 13 9 11 10 13 7 6 5 9 15 9 8 15 13 9 4 9 7 6 8 11 14 12 17 13 19 22 26 26 21 17 16 15 15 13 14 14 13
21 21 22 22 23 24 24 24 24 25 25 26 26 28 27 26 24 20 15 11 8 5 5 3 6 5 6 28 12 6 7 6 9 20 17 12 12 13 8 11 5 7 4 9 13 7 2 5 8 12 13 6 5 4 5 11 12 9 9 10 12 4 11 15 4 2 9 11 2 13 14 5 11 18 13 19 26 21 24 22 18 16 16 17 14 14 16 14
21 22 23 23 24 24 25 25 24 25 25 26 29 27 26 23 22 13 9 4 5 7 6 5 5 6 7 13 11 9 7 8 6 4 7 17 13 14 4 3 6 8 8 7 2 1 5 6 6 6 5 11 6 5 6 8 15 15 5 8 6 6 9 13 14 8 2 5 6 3 12 10 10 11 14 20 27 20 20 22 20 19 18 15 16 14 17 15
22 23 23 23 24 24 25 25 25 25 26 26 25 24 30 22 10 13 7 6 4 6 3 7 4 3 28 8 10 8 3 5 3 7 13 15 17 11 7 11 6 5 3 5 3 8 7 10 5 13 4 4 6 5 15 22 14 6 4 6 12 5 6 11 9 10 10 3 5 2 4 10 15 15 11 22 24 26 23 23 22 21 17 16 16 16 17 15
23 22 24 24 24 25 25 24 25 26 25 24 23 23 10 6 6 4 11 5 6 4 7 10 9 11 10 7 9 8 8 8 11 6 6 11 8 11 8 6 2 7 4 5 10 7 6 7 5 4 15 11 7 9 15 5 5 2 4 5 5 7 14 14 10 6 2 9 12 6 12 14 16 15 12 13 19 27 25 19 15 14 14 15 18 20 19 15
22 23 24 25 25 25 25 24 24 25 25 19 22 14 4 9 8 7 5 2 10 11 8 11 21 12 19 26 17 5 9 5 8 6 6 9 16 9 8 9 4 4 8 10 4 6 7 10 13 20 10 3 5 9 9 9 6 8 4 4 9 8 17 12 8 9 5 9 10 14 12 13 18 16 16 19 17 19 17 15 17 18 20 19 20 20 19 17
23 24 25 26 26 26 25 23 21 21 25 16 13 7 7 6 8 16 13 16 15 16 18 14 22 23 27 10 13 7 14 7 5 7 6 4 9 15 10 10 6 9 6 8 12 4 5 10 22 12 4 7 9 9 5 4 3 5 8 6 14 5 17 16 12 9 8 10 11 6 7 17 20 18 14 16 20 22 23 21 19 20 20 21 22 21 20 17
23 25 26 27 28 27 26 24 22 23 17 3 3 6 5 5 4 6 6 23 9 18 18 24 16 25 22 22 23 5 7 12 20 17 9 10 9 18 7 14 9 14 4 4 2 6 7 23 13 4 11 8 7 5 3 6 8 5 8 9 9 17 10 18 13 10 8 5 14 10 9 23 20 19 12 23 25 29 30 30 29 26 22 22 23 22 22 20
23 25 27 28 28 28 27 26 24 21 5 5 5 2 9 8 4 8 7 13 26 16 19 21 14 24 30 22 17 9 9 17 19 12 7 9 6 18 10 11 9 8 7 6 14 6 13 14 19 16 5 6 8 6 3 3 3 7 5 6 15 9 6 19 9 5 4 12 10 8 12 28 13 9 10 14 23 22 26 29 27 30 30 28 32 29 26 21
23 25 27 27 28 28 28 26 23 7 3 4 8 11 9 5 7 5 4 11 19 15 21 21 22 20 26 19 17 19 19 15 12 15 8 14 18 8 11 12 8 10 13 9 12 16 19 18 4 8 7 9 10 9 6 6 12 5 7 8 9 11 13 17 19 11 7 8 7 7 10 21 9 11 10 6 9 18 18 12 9 5 6 13 14 14 16 20
24 25 26 27 27 30 29 27 6 4 9 8 8 10 12 9 6 7 4 16 15 26 6 13 16 16 13 9 9 23 11 9 16 12 10 15 11 11 14 11 13 14 9 11 8 12 16 22 4 7 9 8 9 11 11 9 11 9 9 15 14 15 15 13 11 9 14 17 4 9 17 14 11 12 12 6 10 17 16 18 18 18 20 20 21 21 18 19
23 24 25 25 27 29 30 7 3 13 13 10 7 7 9 10 7 5 8 9 17 17 6 10 17 14 21 8 13 12 12 16 15 22 11 15 15 18 12 11 15 13 10 7 13 18 22 7 10 9 9 9 10 15 9 14 13 7 17 16 20 20 15 13 12 3 9 12 7 3 4 24 14 7 5 9 11 12 10 15 17 19 20 20 20 22 23 21
23 24 24 24 23 25 17 6 5 14 4 4 3 11 14 14 6 3 11 14 12 13 6 4 9 16 15 11 20 15 8 19 13 12 11 10 16 9 14 11 7 7 10 10 10 21 10 7 6 6 7 9 7 10 13 18 12 13 14 13 12 11 11 13 12 12 14 7 12 4 11 13 11 3 7 4 19 17 16 14 15 17 18 18 18 22 20 20
23 23 23 23 22 16 11 19 17 10 11 6 10 14 17 13 6 6 13 12 17 5 4 5 11 7 4 14 17 22 9 6 16 13 17 12 10 6 16 10 17 14 8 11 17 10 6 9 8 8 6 7 14 18 11 17 19 21 7 10 12 17 18 15 11 9 6 2 20 12 2 7 8 9 8 10 20 13 18 20 20 20 18 20 18 18 19 21
23 23 22 21 23 22 15 12 6 13 7 6 12 16 17 10 5 8 10 8 10 12 14 9 12 5 5 10 13 10 3 5 5 5 10 9 19 15 18 12 11 8 6 15 20 10 10 9 8 11 10 14 17 17 12 20 16 20 10 7 9 6 6 6 6 4 3 4 14 16 5 8 11 10 5 8 12 18 21 21 22 24 21 21 19 18 20 19
24 22 22 21 19 8 4 5 17 15 10 15 15 17 12 6 10 7 7 12 12 8 6 7 10 15 8 16 13 11 6 6 4 6 13 20 11 4 8 6 11 7 8 4 12 17 14 4 10 10 13 18 15 20 16 20 27 4 8 10 8 5 4 4 6 7 4 7 15 14 7 8 7 7 4 8 7 14 11 9 11 14 15 17 17 22 23 24
25 25 22 19 15 8 7 10 16 13 11 8 13 10 6 16 11 8 5 20 11 11 12 11 16 10 7 6 11 11 7 3 4 12 9 7 6 5 3 5 7 7 4 4 12 13 10 8 10 14 11 14 11 17 9 19 14 7 9 11 5 10 10 4 8 7 9 13 15 12 6 5 9 9 5 6 8 17 26 23 21 20 21 21 18 18 20 22
26 27 25 20 17 13 11 12 4 2 8 10 7 8 11 6 11 13 19 9 12 12 9 17 10 21 14 5 8 10 18 5 5 10 15 14 9 18 10 13 15 11 9 5 15 8 11 11 8 10 10 17 13 10 11 5 9 12 7 9 8 11 9 11 7 7 9 15 9 2 8 5 5 9 7 11 5 15 22 30 34 30 26 21 20 22 23 21
24 27 30 23 16 17 24 25 9 13 12 10 6 9 12 11 12 15 16 10 7 9 13 8 17 19 18 12 6 9 6 9 5 7 11 9 15 16 9 11 9 18 11 8 8 7 17 9 6 11 8 12 12 14 8 6 6 13 12 9 8 7 7 6 9 9 8 13 7 3 4 6 8 9 8 16 12 17 17 19 25 31 26 24 22 23 21 17
26 27 22 9 13 22 13 5 9 4 6 6 9 11 14 9 15 8 6 7 12 11 10 22 29 20 7 9 8 8 9 4 6 10 10 11 10 12 11 7 6 3 11 4 8 10 5 14 15 8 14 8 14 17 18 14 14 18 10 19 15 15 16 11 10 11 13 13 7 8 9 10 5 9 17 11 8 14 10 13 16 17 18 17 16 16 16 16
28 22 12 8 10 17 18 11 3 4 1 8 15 14 14 18 6 5 4 8 10 11 15 19 16 8 11 6 9 7 8 10 4 4 5 12 12 12 15 15 9 8 5 10 9 8 7 17 16 10 6 2 9 7 8 7 4 4 8 13 14 13 14 12 12 9 5 5 4 10 6 2 6 4 10 10 12 13 14 16 18 21 22 25 22 22 26 26
17 8 2 7 6 5 15 12 6 3 5 13 12 7 12 12 5 3 4 6 8 15 20 18 4 5 5 11 8 12 9 5 5 6 4 10 9 19 12 14 21 18 13 20 12 7 4 16 7 11 2 4 12 6 8 11 12 8 8 9 14 11 17 10 3 2 5 10 4 4 4 4 10 8 14 11 12 13 17 17 15 15 19 20 27 28 24 22
10 13 4 4 5 6 12 13 13 8 12 14 10 8 12 11 11 3 8 8 9 9 8 15 15 7 8 12 12 12 12 5 4 7 9 4 6 5 5 4 5 11 11 15 9 9 8 15 9 7 18 13 4 6 3 5 12 14 7 13 5 6 11 14 13 8 7 9 11 4 8 3 9 9 11 12 10 13 16 17 17 15 14 10 7 8 13 14
14 10 7 6 5 13 14 14 13 5 12 11 7 9 6 5 4 6 6 11 11 7 6 4 14 4 5 11 16 9 12 3 5 5 8 4 12 3 3 8 7 6 9 7 11 10 7 16 16 7 9 12 7 3 8 4 2 12 12 8 10 9 9 8 13 4 6 8 8 5 2 3 6 7 7 7 5 11 14 15 19 20 21 22 16 9 9 11
6 5 9 3 8 17 14 15 7 8 9 9 4 4 7 9 5 4 9 10 6 6 5 8 6 7 9 14 9 12 7 13 6 5 6 8 10 5 5 7 3 7 5 14 11 7 4 9 19 8 3 6 7 11 6 10 9 2 6 5 3 12 7 9 17 12 16 6 6 5 4 10 7 6 4 9 8 8 10 16 19 24 22 13 10 12 11 9
2 5 5 3 9 14 15 9 8 10 10 2 6 8 5 6 9 7 8 5 9 6 8 6 4 13 13 12 7 9 8 3 6 8 6 6 8 2 7 3 8 3 5 3 5 2 4 4 13 12 9 6 8 9 4 6 4 8 7 7 4 6 7 10 4 6 11 16 12 14 8 11 7 4 9 13 6 10 19 23 17 12 10 14 17 17 14 9
4 8 6 4 11 13 12 9 7 3 3 5 3 7 5 9 10 10 7 5 8 9 11 11 12 8 9 10 12 3 5 5 4 5 7 3 7 10 6 10 6 6 6 10 8 4 7 3 9 11 11 5 8 8 6 8 8 9 8 6 3 2 7 6 11 4 5 11 13 15 14 10 9 7 7 3 4 9 11 22 21 15 15 18 15 15 14 13
5 6 3 3 11 12 13 4 4 3 4 3 5 8 13 10 9 6 7 5 6 10 8 9 8 9 6 8 9 4 7 7 4 4 6 11 5 7 7 11 10 9 11 11 4 4 5 8 6 4 6 5 4 5 3 15 21 14 13 7 4 4 10 8 8 7 5 5 10 7 14 7 7 6 5 6 7 10 10 12 17 18 16 16 14 14 12 13
8 5 5 3 2 8 10 4 4 6 4 7 6 6 6 9 5 7 8 4 10 6 6 5 8 8 7 4 4 5 3 4 3 6 4 3 8 12 8 7 5 3 6 8 3 6 8 8 5 7 9 8 6 5 9 9 11 11 9 6 8 6 5 11 10 11 14 4 4 5 7 8 5 6 5 6 10 10 14 13 11 18 16 14 14 13 14 15
4 5 7 3 4 9 11 6 4 5 7 7 3 7 6 6 5 7 5 4 7 7 4 6 7 2 7 3 4 4 4 6 2 4 5 4 10 6 8 6 2 4 6 10 15 8 14 8 8 4 8 9 13 14 11 10 10 9 8 6 4 4 6 3 6 4 9 5 9 14 13 8 3 5 7 8 10 12 12 12 11 14 10 12 11 11 13 14
7 4 2 10 12 9 6 8 6 3 4 5 5 8 12 8 4 7 6 6 3 3 6 8 7 7 8 3 4 4 6 4 6 8 4 5 7 7 11 10 6 7 3 5 8 5 10 5 7 7 12 12 10 9 11 6 3 6 6 5 6 11 6 4 4 5 9 4 6 11 9 6 6 4 7 9 11 11 8 14 15 12 11 11 13 12 13 14
4 12 9 9 15 10 7 2 6 5 2 2 5 5 3 9 11 6 3 6 2 4 8 7 6 2 4 6 7 11 10 10 11 6 10 9 8 14 9 11 13 9 8 13 8 10 10 5 6 8 12 10 9 11 7 7 5 8 4 7 5 3 5 10 9 11 4 3 6 5 11 15 14 12 11 10 9 10 8 7 17 12 12 11 11 13 15 16
7 11 6 5 7 10 2 7 2 4 3 5 6 7 7 7 9 10 4 5 5 9 6 6 8 7 6 4 2 5 6 4 10 7 12 4 5 5 7 10 9 13 8 9 10 10 9 10 8 5 8 4 5 6 6 3 7 3 5 7 8 5 5 10 10 4 9 10 4 5 9 19 15 14 12 11 8 9 9 10 11 12 12 13 12 15 17 20
8 4 4 7 10 3 5 5 1 2 1 2 3 3 6 7 8 10 8 3 6 8 4 7 13 9 3 2 3 6 9 5 8 7 7 7 4 9 10 12 12 12 10 8 8 10 8 10 5 3 6 10 13 12 7 12 8 9 11 9 11 10 6 8 2 3 8 8 11 8 7 10 10 10 9 8 8 12 14 13 13 13 15 15 16 19 19 18
8 5 3 4 6 5 7 1 4 2 2 2 3 3 7 7 8 6 3 10 9 9 9 6 9 10 9 7 6 4 4 5 6 5 7 10 6 8 7 6 4 8 7 7 9 6 14 5 2 5 8 16 15 14 12 14 10 14 13 12 11 10 15 17 13 7 12 11 10 17 14 11 11 11 13 13 13 15 15 12 15 17 16 16 18 17 18 18
5 4 2 8 8 4 1 2 3 4 4 6 3 4 5 5 5 9 7 5 8 8 5 6 8 7 5 7 5 8 1 2 4 6 5 7 10 11 7 3 7 6 5 4 3 5 11 6 5 4 7 8 11 10 13 11 11 14 12 15 15 11 14 15 16 11 20 16 15 16 14 11 11 8 11 12 15 14 18 19 17 15 15 15 18 18 16 18
3 4 6 7 7 6 4 5 3 3 5 8 7 5 3 3 2 2 6 4 2 7 9 5 8 8 2 3 4 3 6 5 6 9 8 4 5 6 7 9 2 7 6 5 5 4 10 4 5 6 8 6 9 9 7 11 12 16 12 19 19 14 7 4 10 5 8 13 11 15 13 10 6 9 12 14 14 15 18 15 15 14 12 13 17 16 16 17
3 3 7 9 8 8 4 2 3 6 5 5 4 5 4 5 4 4 7 8 8 11 9 4 6 3 6 8 6 5 6 6 9 11 8 16 15 14 12 15 7 8 3 2 3 6 7 13 9 6 10 4 5 11 12 12 10 10 12 15 14 8 5 5 7 8 5 21 23 18 12 8 8 8 17 15 15 16 16 14 13 15 13 14 17 16 16 16
Wind_Speed
14 13 14 14 14 14 14 15 14 14 14 13 13 13 13 13 13 13 13 13 14 14 14 14 14 15 15 15 16 17 14 11 13 6 3 14 7 8 12 1 5 17 13 1 3 3 2 2 2 0 2 3 2 1 2 2 2 2 1 3 3 6 4 5 5 4 2 4 8 11 5 8 6 4 1 7 13 12 11 10 6 14 12 11 12 14 13 12
13 13 13 14 14 14 14 14 15 15 15 15 14 14 13 13 13 14 14 14 14 14 14 13 14 14 15 15 16 16 12 11 13 12 17 9 10 11 9 5 8 11 9 1 2 2 5 2 2 3 4 2 1 2 3 2 3 3 1 3 8 4 5 4 2 5 2 6 8 11 5 3 6 1 3 5 2 9 12 8 9 13 11 13 14 14 15 13
12 13 13 14 14 14 14 14 14 14 14 15 15 15 15 15 14 14 14 14 14 13 13 13 13 14 14 15 15 12 12 9 5 8 8 11 15 14 11 9 10 15 12 5 5 7 6 8 4 4 1 2 1 3 1 2 5 5 4 4 9 5 3 3 5 7 6 8 12 11 6 4 4 1 2 2 6 6 14 11 7 10 16 14 13 14 13 12
13 13 13 13 14 14 15 15 15 15 15 15 15 14 15 15 15 15 15 14 14 14 13 13 13 13 14 15 13 9 6 5 3 2 3 1 11 16 12 13 11 10 3 3 8 7 2 4 5 4 2 1 1 1 2 4 3 2 3 5 6 2 4 4 2 6 9 7 5 5 9 11 3 3 5 6 9 2 5 15 18 15 19 16 13 12 14 12
13 13 13 13 14 14 15 15 15 16 15 15 15 15 14 14 14 14 14 15 14 13 13 13 13 13 13 14 14 4 4 4 1 2 4 7 5 14 13 12 13 6 4 4 6 3 3 3 4 2 2 3 0 1 3 2 2 2 7 8 5 3 5 8 5 9 10 10 5 6 7 11 1 1 7 10 7 6 11 11 13 19 21 19 16 13 13 13
14 14 14 14 14 14 15 15 15 15 16 15 15 15 15 14 14 14 14 13 13 13 13 12 12 12 13 14 6 1 1 1 2 6 4 8 6 12 13 14 13 6 4 4 3 4 5 0 4 3 0 2 4 5 2 2 2 4 4 5 6 5 8 4 6 9 5 7 7 6 7 4 2 1 7 8 5 4 6 14 14 17 17 17 16 17 15 14
14 14 14 14 14 14 14 15 15 15 15 15 15 15 15 14 14 14 14 13 13 13 13 12 11 12 12 10 3 1 2 8 5 8 11 7 6 12 14 13 10 7 4 4 3 4 3 3 3 2 3 1 2 2 5 1 2 3 7 3 6 4 7 7 9 11 9 8 11 8 7 7 6 2 2 5 1 6 9 11 10 9 12 16 16 13 14 14
14 14 14 14 14 14 14 14 15 15 15 15 15 15 15 15 15 14 14 14 13 13 12 11 11 10 10 4 1 1 1 8 13 4 2 9 8 12 13 6 8 6 6 6 6 4 5 4 6 2 1 6 3 4 2 2 1 5 6 4 5 6 7 9 9 9 9 10 10 7 7 14 10 3 3 5 6 12 10 12 10 12 13 14 12 12 12 12
14 14 14 14 14 14 14 14 15 15 16 16 16 16 16 15 15 15 14 13 13 13 12 11 10 8 6 2 2 5 7 6 4 3 6 7 8 9 11 6 5 8 4 4 4 4 6 4 3 3 4 2 4 2 4 0 5 5 10 6 5 6 7 6 5 7 9 7 6 6 9 12 7 5 3 2 6 12 14 13 15 15 14 11 11 11 13 13
14 14 14 15 15 15 15 15 15 16 16 16 16 16 16 16 15 15 14 13 13 12 12 10 9 7 2 2 1 2 7 5 3 5 6 8 8 9 2 3 9 6 5 4 4 6 7 6 8 5 2 1 1 4 1 5 5 3 3 4 7 7 7 6 6 9 6 4 4 4 8 10 2 3 1 3 3 12 14 15 14 14 13 11 8 8 8 11
14 14 15 15 15 15 15 15 15 15 16 16 16 16 16 16 16 15 14 14 13 12 11 9 6 6 0 0 1 5 7 3 0 3 8 8 8 6 5 6 8 7 4 4 8 10 5 5 4 2 1 4 0 4 2 4 3 3 5 4 5 7 7 8 6 10 4 5 6 8 10 10 4 1 8 10 9 12 17 16 16 12 11 10 10 10 9 10
14 14 15 15 15 16 16 16 16 16 16 16 17 17 17 16 16 16 15 14 13 11 9 7 7 3 1 1 5 10 3 2 2 3 5 8 5 7 3 4 6 9 9 7 8 8 5 4 3 1 3 2 2 3 4 4 0 4 0 5 7 5 4 4 6 6 4 5 4 6 3 5 2 3 8 12 13 12 15 16 15 13 10 7 9 8 10 11
14 15 15 15 16 16 16 16 17 17 17 17 17 17 17 17 17 17 16 14 11 9 9 5 2 2 1 4 11 10 6 6 5 4 6 3 2 3 4 5 8 5 8 7 6 7 5 4 4 3 3 0 1 1 3 3 4 0 1 1 6 5 7 9 3 4 3 3 3 6 3 7 7 5 8 13 14 12 12 13 12 9 8 7 5 5 4 4
15 15 16 16 16 17 17 17 18 17 18 18 18 18 18 19 19 18 17 14 11 9 6 2 0 1 1 7 7 4 5 5 7 6 8 1 1 4 5 5 7 6 3 4 3 3 6 4 3 2 1 1 4 2 4 2 2 2 4 0 4 3 5 3 0 1 3 3 4 5 4 8 8 4 6 11 16 18 15 13 11 9 9 8 7 6 6 6
15 16 16 17 17 17 18 18 18 19 19 19 19 20 20 21 19 18 16 11 8 5 4 3 0 1 1 9 7 11 15 1 4 8 6 3 5 4 5 5 7 9 8 5 3 2 4 6 2 1 3 4 4 3 6 2 2 1 3 7 4 5 6 8 6 3 4 2 4 5 4 8 7 6 8 13 13 16 17 14 11 10 9 9 8 8 7 8
16 16 17 17 18 18 18 19 19 19 19 20 20 22 22 21 19 15 11 7 5 4 3 2 2 2 3 10 2 4 1 2 5 13 9 7 7 7 3 8 1 3 2 5 7 2 1 3 3 5 3 2 3 1 3 5 5 3 3 6 5 1 5 6 1 1 6 3 1 7 5 2 5 8 9 12 15 14 15 14 12 10 10 10 8 7 8 8
16 16 17 18 18 19 19 19 19 19 20 20 23 21 20 18 17 9 5 3 3 3 3 1 2 2 0 5 4 4 3 4 3 2 3 8 8 9 3 2 2 3 4 4 2 0 1 1 2 0 1 4 3 2 2 4 7 4 2 2 2 2 4 3 8 3 1 1 2 1 4 5 4 4 9 12 17 14 12 14 14 12 10 9 8 8 9 7
16 17 18 18 18 19 19 19 19 19 21 20 20 18 16 15 6 11 4 4 2 3 1 2 2 2 10 2 2 3 1 3 1 3 5 6 10 6 3 3 2 2 2 1 1 2 1 2 0 5 1 1 3 3 6 9 3 1 1 3 6 2 4 6 0 4 6 1 2 1 2 6 8 8 6 14 15 15 14 14 14 13 10 9 9 9 9 7
16 16 18 18 19 19 19 19 19 20 20 19 18 18 6 3 2 2 5 2 2 1 0 2 3 4 4 4 5 5 3 5 6 4 3 4 3 2 1 0 1 4 0 1 3 4 1 2 2 1 6 5 3 6 8 3 3 1 2 1 2 4 7 5 3 3 1 6 5 4 6 7 8 9 3 9 13 14 14 11 9 9 8 8 10 11 10 9
16 17 18 19 19 19 20 19 19 20 21 13 10 4 1 2 1 1 1 0 4 6 3 6 10 5 12 16 7 2 5 4 2 3 3 3 8 4 3 2 0 2 4 3 1 3 3 5 6 10 5 2 3 5 6 6 2 4 1 1 5 5 9 5 4 6 3 3 5 6 6 6 10 10 4 13 11 12 8 9 10 11 11 10 12 12 10 11
17 18 19 19 20 20 20 18 17 17 20 8 6 2 2 1 3 4 5 8 9 10 11 8 13 12 13 4 4 4 6 4 1 3 1 2 5 9 3 3 1 4 2 5 5 1 2 5 12 6 2 3 5 6 3 0 0 3 4 4 7 3 10 7 4 5 5 1 6 5 4 8 12 10 3 10 13 14 14 13 12 13 12 12 14 13 13 11
17 18 19 20 20 20 21 19 18 19 12 1 1 1 1 2 1 2 1 7 5 12 13 16 10 14 11 13 12 2 4 4 11 9 3 7 4 8 2 5 4 8 2 0 1 1 2 11 5 1 6 5 2 1 2 3 4 1 4 4 5 8 4 11 5 4 2 3 7 6 6 11 13 10 3 14 16 16 18 19 18 16 14 13 13 13 14 12
16 18 19 21 21 21 21 21 19 15 1 1 1 1 3 3 3 4 1 3 11 7 10 12 7 15 16 9 4 6 5 8 7 6 1 5 3 9 5 5 5 4 1 2 6 2 6 7 10 10 3 4 3 1 1 0 0 3 2 2 7 4 2 8 4 4 2 1 5 5 6 13 8 5 5 10 14 11 17 20 17 19 19 18 18 16 16 15
16 18 20 20 21 22 22 21 18 3 0 2 3 6 4 1 5 3 2 3 6 5 9 11 12 7 14 6 5 10 11 4 5 9 3 5 8 3 3 6 5 4 7 5 7 9 10 8 2 5 4 5 6 5 3 3 7 2 4 4 3 5 6 8 6 4 4 4 3 4 5 9 5 4 3 3 5 10 11 5 4 2 2 6 9 8 10 13
17 18 19 20 21 23 22 21 2 2 4 4 4 6 6 3 4 2 2 4 3 7 4 6 5 7 4 5 6 9 5 1 10 5 3 8 4 4 5 2 4 7 5 7 6 7 10 11 3 5 4 5 5 5 5 5 6 3 5 10 9 9 9 8 6 5 5 6 1 3 6 5 5 7 3 4 4 8 8 12 12 11 12 13 13 12 12 12
17 18 19 19 20 22 23 3 1 5 7 3 4 2 1 3 3 2 2 3 6 5 2 3 4 4 6 2 5 5 7 5 9 9 4 7 7 5 1 2 3 8 7 5 7 4 10 1 6 5 5 5 5 7 5 9 7 3 7 11 14 13 9 7 8 0 3 4 2 2 1 7 7 4 2 5 7 8 4 8 10 11 12 12 11 11 12 13
17 17 18 18 18 20 9 1 2 8 1 1 2 6 6 4 4 0 2 4 4 3 2 0 2 1 3 4 9 8 2 7 4 6 5 4 7 2 6 5 0 1 3 2 1 6 2 4 4 3 4 5 4 5 5 11 7 4 7 9 8 7 7 8 8 7 6 2 3 2 4 4 4 2 4 1 12 10 9 8 10 10 11 11 12 14 13 12
17 17 17 17 17 12 4 7 9 4 6 2 6 8 9 5 3 2 3 2 1 2 1 1 3 1 0 8 11 9 3 3 4 5 10 5 5 1 6 6 8 9 4 5 8 3 3 2 4 3 3 3 7 9 5 10 8 8 3 7 5 8 11 9 7 5 2 1 10 5 1 0 2 2 4 5 12 8 12 13 13 12 12 12 10 11 11 12
17 17 16 16 18 17 8 5 3 7 4 3 7 9 7 5 1 3 4 1 3 0 5 2 5 1 2 4 6 5 2 1 1 1 5 3 8 6 6 7 5 5 3 9 9 2 2 5 5 7 6 6 8 8 7 13 5 12 6 3 3 3 2 4 4 2 1 1 6 8 1 2 4 4 2 4 4 10 12 13 13 13 12 14 11 11 12 12
18 17 16 16 13 4 2 2 9 9 5 9 8 9 5 2 3 1 1 3 2 1 1 1 2 8 3 8 5 5 3 2 1 1 4 5 4 1 1 3 4 3 3 1 6 8 5 1 7 4 5 7 6 11 8 13 18 2 4 3 4 1 1 2 3 3 2 1 7 9 4 3 1 2 1 3 2 6 5 5 6 7 7 8 9 12 12 14
19 18 16 14 6 3 3 5 9 7 5 5 8 5 2 7 3 3 2 5 1 2 3 4 6 5 3 2 3 5 2 1 2 5 2 2 3 2 1 1 4 3 2 1 5 6 4 2 1 3 7 4 5 7 4 12 8 3 1 4 2 6 5 2 3 4 2 4 8 7 4 4 3 2 2 3 6 7 14 14 14 13 15 13 11 11 12 13
20 20 19 10 8 6 4 5 1 1 4 6 4 4 4 1 4 4 5 4 1 4 4 7 4 7 8 3 4 1 5 1 2 4 7 5 5 8 4 6 5 1 3 2 7 4 5 5 3 6 4 11 5 4 6 1 5 6 3 3 3 3 3 2 2 1 3 5 3 2 4 1 2 2 3 4 4 7 12 15 18 18 16 13 14 12 12 12
19 21 23 13 11 9 13 14 4 7 7 6 3 4 4 4 3 5 4 4 1 2 3 3 8 12 11 4 2 5 2 3 2 2 5 2 8 9 5 4 5 6 3 3 4 2 8 3 3 6 4 5 7 5 2 1 3 7 6 4 3 0 0 1 2 1 3 6 3 2 1 1 2 3 3 8 7 10 11 11 15 19 16 12 11 10 11 9
21 21 11 5 7 11 7 3 4 2 3 2 2 5 7 3 4 4 2 1 5 3 5 6 16 11 4 2 5 3 3 1 2 2 3 4 5 5 5 3 4 0 3 2 2 5 1 5 6 3 4 3 7 9 10 7 8 9 4 9 8 7 4 3 3 3 6 6 2 5 2 2 1 3 9 6 5 5 5 5 3 6 9 11 10 9 8 7
22 15 7 4 5 9 11 6 2 2 0 3 7 5 5 6 2 1 1 3 2 4 7 11 6 3 5 2 4 2 1 1 0 3 1 5 5 3 6 7 5 4 2 3 2 2 4 6 8 5 4 1 4 3 4 4 2 1 3 6 7 4 6 4 4 3 2 1 1 4 0 0 1 2 5 6 5 7 7 8 9 9 8 11 12 12 12 15
13 3 1 2 2 2 8 6 4 1 2 6 4 1 4 4 1 1 0 1 2 4 10 10 1 2 2 5 2 6 5 1 2 2 1 5 3 7 4 4 7 11 5 6 4 2 2 4 3 7 1 2 6 2 3 6 2 2 4 3 6 5 9 4 1 1 2 4 0 0 0 1 4 3 8 7 7 6 9 9 9 9 7 7 12 15 15 13
4 6 1 2 2 3 7 7 6 4 6 6 4 2 4 2 6 1 2 4 4 5 3 5 4 2 3 4 4 7 5 2 1 1 2 0 1 2 1 1 2 6 7 7 2 3 3 6 5 2 11 5 2 4 1 1 5 6 2 6 1 3 6 5 4 3 2 3 3 1 2 1 3 1 5 8 4 5 8 9 9 10 10 4 4 2 2 4
6 4 3 3 2 7 8 8 7 2 5 5 1 4 2 0 1 1 2 4 3 3 0 0 4 1 1 5 7 4 6 0 2 1 2 1 1 1 2 2 3 2 6 4 3 3 3 5 6 4 5 7 4 1 4 1 1 6 3 4 3 1 1 3 4 0 0 0 1 1 1 1 2 3 2 4 0 4 7 8 10 12 12 15 10 5 6 4
3 1 2 1 5 10 8 8 3 3 3 3 1 1 2 3 2 1 5 3 3 2 1 3 1 2 3 5 4 5 4 4 2 2 2 1 1 2 2 3 1 5 2 10 3 1 1 2 7 4 1 3 3 4 1 4 4 2 4 2 1 4 3 3 5 4 6 2 2 2 1 2 2 2 2 6 5 5 5 2 9 12 10 3 6 7 6 5
1 1 2 1 5 7 9 4 3 4 4 1 2 2 2 1 3 4 4 1 2 1 3 2 1 4 4 7 4 3 4 1 1 3 2 1 1 1 3 3 3 0 4 1 3 1 1 1 4 4 5 2 1 1 2 3 2 2 2 2 0 2 2 3 1 1 4 5 5 5 1 3 2 2 4 7 3 6 7 9 8 3 5 8 10 9 8 6
1 2 1 1 7 7 5 4 3 1 0 1 1 2 2 2 3 3 5 4 2 4 5 4 4 2 3 3 6 1 1 2 0 1 2 1 2 0 1 4 1 1 1 4 5 1 2 1 3 4 5 1 4 3 2 4 4 4 3 2 2 0 3 2 4 1 2 3 3 5 4 3 4 3 4 1 0 6 5 7 10 9 8 6 4 3 9 8
1 1 1 1 7 6 6 2 1 0 1 1 1 1 2 4 2 3 1 2 4 2 3 2 5 4 3 4 5 2 2 2 2 1 1 4 2 2 2 7 6 4 4 1 1 1 2 3 2 1 2 1 2 4 3 2 12 6 6 2 2 1 3 3 1 2 2 1 5 3 5 3 2 3 2 3 3 6 7 5 10 9 10 8 4 6 8 7
3 1 3 2 0 3 4 2 1 2 1 2 3 3 2 2 2 2 2 1 2 2 1 1 2 1 3 1 1 2 1 0 1 2 1 2 2 2 5 6 4 3 3 1 0 0 4 2 2 3 5 4 4 3 6 3 2 6 4 2 3 1 1 4 3 3 5 2 1 1 2 2 1 3 3 3 5 6 7 6 4 9 8 5 7 8 9 8
1 0 2 1 2 4 3 1 1 3 2 4 1 3 4 2 1 2 1 2 1 3 0 1 4 1 3 1 1 1 1 1 0 2 2 2 2 5 5 5 2 1 2 3 4 3 1 2 3 2 1 4 5 7 3 5 5 3 3 1 1 0 3 1 3 1 3 2 3 7 4 2 1 3 4 4 5 7 8 7 5 7 6 6 5 4 6 6
1 0 0 4 5 3 1 3 3 1 2 2 2 5 6 3 2 4 2 3 1 1 2 2 3 3 2 1 2 1 2 1 1 4 2 1 1 3 8 8 3 4 1 4 5 1 3 2 2 2 4 4 2 2 3 2 1 2 0 3 4 6 4 1 0 1 3 1 3 3 2 3 2 1 4 6 6 6 5 7 8 7 7 6 3 3 5 5
0 3 4 4 6 4 3 1 2 2 0 1 2 2 0 3 4 3 1 3 1 2 2 3 4 0 1 3 3 5 5 5 5 2 4 4 3 4 5 7 10 4 5 10 5 5 3 2 3 2 5 3 3 5 3 1 2 2 3 2 3 3 3 6 4 5 1 1 3 2 5 9 7 6 6 5 4 6 4 2 5 8 8 6 5 7 8 9
1 3 1 1 3 5 0 3 1 2 1 2 1 1 3 3 3 4 3 1 3 3 2 1 3 2 2 1 0 2 3 2 5 4 6 3 2 1 6 7 6 9 5 3 6 4 4 4 4 3 4 0 3 3 4 1 3 2 3 5 6 2 3 6 4 1 5 5 2 2 3 9 9 8 6 5 5 6 6 5 5 7 7 7 7 8 13 13
2 1 1 1 3 1 1 2 0 1 0 1 0 0 2 3 4 3 4 1 4 3 1 3 6 4 1 1 1 2 5 3 4 3 5 3 2 6 3 7 5 6 5 2 4 4 3 3 2 1 3 4 7 7 4 6 5 4 6 6 7 8 3 5 1 1 5 3 5 5 4 5 6 6 5 4 5 8 9 8 8 8 8 9 10 12 12 11
2 1 0 0 1 2 3 1 2 1 0 1 1 1 2 3 4 1 0 4 3 4 3 1 6 7 6 4 2 1 1 1 2 2 2 5 3 3 3 3 2 6 4 3 4 2 5 3 1 1 2 9 10 9 8 5 4 7 8 9 7 7 8 11 7 2 2 5 6 10 10 6 4 6 6 6 7 9 9 8 9 10 9 10 10 11 11 10
1 1 0 4 4 2 0 1 1 2 1 3 0 2 0 1 3 4 3 1 2 3 2 2 5 5 3 5 2 3 0 1 1 1 2 5 5 4 1 1 3 3 3 2 0 1 4 1 1 1 4 5 7 6 8 8 3 7 7 10 10 8 5 6 9 6 11 10 9 10 10 5 4 3 6 6 8 8 10 12 11 9 8 9 11 11 10 10
1 1 1 3 2 3 2 2 1 1 2 4 3 2 1 1 1 1 3 2 1 0 3 3 6 5 1 2 2 2 3 2 3 3 4 1 2 2 1 3 1 4 3 2 2 1 4 1 2 2 4 1 5 6 5 8 5 7 7 13 12 9 3 2 2 1 3 8 6 10 5 2 2 4 7 8 9 9 11 9 9 8 8 8 11 10 9 10
1 1 2 2 2 4 2 1 1 2 1 1 1 2 0 3 3 1 2 4 5 3 1 3 4 1 4 3 3 3 3 4 4 4 4 9 9 7 5 7 3 4 1 1 0 2 2 5 3 3 5 1 2 7 6 6 4 4 6 8 8 4 3 1 3 5 1 9 13 9 5 4 5 2 9 9 10 10 10 8 7 9 8 9 11 10 9 10
Wind_Direction
345 343 341 341 339 338 338 337 335 335 334 333 331 330 329 329 327 325 326 327 324 322 321 319 319 319 319 320 323 325 332 323 310 298 245 242 195 196 181 57 175 193 201 55 23 71 71 85 155 294 97 112 226 110 221 125 165 83 140 132 256 231 228 218 197 186 227 296 311 320 1 357 327 344 25 50 46 72 67 59 58 56 64 88 94 109 121 114
345 341 341 338 338 337 336 335 334 334 333 330 330 329 329 327 325 325 327 328 327 323 321 320 319 318 320 323 325 326 335 315 297 284 242 223 171 188 192 156 104 158 144 249 177 134 124 178 219 130 129 153 267 163 143 245 146 145 165 124 224 219 233 165 214 247 339 295 301 300 338 46 332 1 332 68 79 98 81 67 79 94 85 98 110 123 127 129
342 342 339 339 336 335 334 332 332 332 331 330 328 329 328 326 325 326 327 327 326 327 322 321 318 319 319 323 318 334 338 312 287 270 260 237 215 187 191 165 123 140 151 164 192 162 160 187 168 121 162 106 256 170 175 250 146 216 129 216 245 209 260 271 285 289 280 283 293 304 311 23 277 13 296 127 134 125 122 121 92 113 130 135 138 135 136 139
342 341 340 337 336 335 333 331 330 331 330 328 327 327 326 325 326 328 327 326 326 326 326 319 318 319 319 315 322 334 340 295 299 247 267 209 189 190 190 165 152 161 103 98 154 154 146 105 134 135 118 144 269 149 163 240 144 260 146 211 236 236 281 261 214 247 266 264 273 292 306 314 270 220 137 166 88 344 174 159 150 156 148 147 147 140 145 147
341 340 339 337 336 335 333 331 330 329 328 326 325 324 324 323 324 323 324 323 324 325 324 321 322 317 320 318 324 355 328 20 256 271 265 4 179 173 185 154 170 168 168 118 104 101 124 126 141 173 104 196 311 84 240 247 207 106 213 236 247 295 286 271 271 271 265 277 298 292 315 281 5 68 141 174 137 198 188 197 159 153 153 149 152 154 152 153
339 339 337 336 335 335 332 330 328 327 326 324 323 322 321 321 319 320 318 318 320 323 322 321 321 324 320 322 323 121 39 325 319 289 14 28 84 158 162 156 164 145 145 117 126 145 116 157 111 156 243 124 206 186 274 195 158 257 288 245 234 225 249 294 294 279 290 295 297 305 265 310 8 245 194 198 187 227 183 169 160 156 157 156 148 151 154 156
338 337 336 335 334 333 332 328 327 324 322 321 319 319 318 317 317 315 315 315 316 319 322 323 324 324 327 329 305 81 126 271 310 254 360 19 105 143 148 152 147 131 149 112 133 141 168 129 115 167 112 166 285 187 268 283 159 201 250 273 278 214 233 263 273 277 284 279 274 264 325 311 288 224 215 225 237 131 147 143 144 132 133 144 150 157 155 158
337 335 333 332 332 330 330 327 324 321 320 318 317 316 316 316 316 316 316 315 316 316 322 322 322 325 338 349 34 331 93 250 252 306 76 87 98 129 136 120 132 141 151 171 161 160 143 138 166 156 119 145 225 156 255 236 209 220 256 258 265 261 249 254 257 273 280 276 270 298 292 273 262 217 142 219 147 136 130 130 132 140 143 150 151 153 155 156
336 333 331 329 328 328 325 325 323 322 319 318 317 317 316 316 314 315 313 313 313 313 315 319 317 320 340 75 101 350 270 234 274 335 90 91 114 115 129 131 161 149 165 154 168 160 134 221 173 179 215 193 234 232 250 201 304 209 232 247 271 277 281 272 293 274 263 270 269 287 268 265 268 168 42 318 163 132 125 132 144 148 155 161 162 158 158 157
334 333 331 329 328 326 326 325 324 322 321 318 318 316 316 314 313 312 311 309 310 311 312 318 310 317 10 77 49 20 262 225 12 69 84 111 116 130 160 110 155 145 138 196 148 161 187 194 174 209 109 245 224 231 160 145 236 180 222 226 244 261 272 271 240 266 264 243 257 242 268 278 302 131 310 93 144 121 126 139 151 157 165 166 158 153 153 152
333 331 330 328 326 326 326 326 323 321 319 318 316 315 313 311 309 306 306 305 306 309 310 307 316 320 1 328 121 234 252 66 27 91 105 106 110 138 200 160 167 161 154 166 193 192 185 142 158 115 97 223 167 269 186 219 215 272 258 309 288 265 259 264 287 272 299 295 219 216 252 266 307 123 173 158 150 144 139 149 160 169 170 167 160 160 155 149
331 330 329 327 327 326 327 325 322 321 317 317 314 311 310 308 306 304 301 301 302 302 304 298 292 296 297 90 192 227 263 97 79 89 108 119 145 193 183 176 192 182 169 182 217 211 186 153 127 86 198 36 306 319 280 222 299 264 263 307 292 320 300 262 219 239 164 252 214 194 276 312 332 228 175 150 146 154 147 155 164 172 178 163 164 167 164 159
330 329 329 328 326 326 325 324 322 320 319 315 314 311 310 308 305 301 298 295 295 294 296 303 268 262 287 299 227 239 267 272 270 302 309 251 243 218 207 165 202 223 202 178 210 211 167 168 125 177 243 271 217 203 262 317 276 325 249 216 324 335 314 269 239 262 186 254 191 108 275 266 261 255 161 148 148 149 150 157 166 171 167 154 163 166 147 147
332 331 330 328 327 325 325 325 323 321 319 317 315 313 311 308 301 297 295 287 282 281 294 256 116 289 207 244 271 244 228 232 289 308 267 214 202 256 188 213 194 218 273 254 274 132 165 195 149 220 16 241 272 305 329 321 19 253 262 96 250 333 269 289 202 273 175 256 146 162 195 265 266 272 176 152 151 157 164 168 168 167 161 163 167 173 166 170
333 332 330 328 327 327 326 325 324 322 321 320 317 315 312 305 298 294 290 288 270 243 204 188 31 225 8 269 262 271 255 218 243 241 234 181 197 298 228 181 202 204 216 226 255 171 128 116 119 265 259 233 244 314 299 350 354 337 358 286 330 188 280 304 288 209 216 306 122 131 221 229 243 237 174 157 165 160 162 171 174 171 164 165 167 167 165 177
332 331 330 328 327 327 327 326 325 325 323 321 318 315 312 302 295 290 282 263 235 195 83 62 219 195 328 297 266 271 218 165 249 221 220 182 191 206 197 173 188 224 190 263 232 280 101 126 181 202 249 331 221 160 344 359 330 353 185 264 281 304 267 349 302 292 243 223 334 164 214 310 299 248 174 162 167 172 163 172 178 177 168 167 161 164 170 172
332 330 329 328 328 328 328 327 326 325 324 322 320 314 309 302 297 263 265 135 170 127 159 109 133 204 302 233 316 312 264 230 185 66 161 208 187 203 119 112 205 209 191 270 5 177 273 102 277 289 317 216 161 103 244 305 269 287 15 217 220 259 307 295 301 323 315 180 262 267 193 221 237 303 157 172 171 171 169 176 178 178 177 165 147 160 173 170
330 330 329 328 328 328 328 327 326 325 324 324 323 312 310 310 74 110 86 105 132 154 209 261 204 318 269 0 264 241 308 293 57 178 187 197 195 202 164 186 245 128 124 281 123 176 194 214 211 214 344 141 119 116 152 231 199 4 288 320 310 298 233 232 10 263 8 13 222 290 256 269 270 269 149 183 177 170 180 178 177 180 171 155 155 161 171 158
329 328 329 328 329 329 327 326 325 326 325 323 318 302 310 10 61 101 106 148 110 36 346 223 127 157 192 203 263 326 291 271 292 167 222 144 228 226 225 205 113 138 228 122 287 156 301 246 16 15 245 206 201 165 199 176 134 127 173 191 202 298 291 281 239 267 295 313 307 261 247 266 265 262 138 186 177 179 190 177 166 170 162 144 160 169 168 147
328 328 328 329 329 329 327 324 325 326 328 326 337 343 62 10 8 354 347 272 226 204 222 179 207 263 306 294 285 261 286 316 309 266 145 172 118 181 237 173 300 102 115 191 257 205 123 189 214 222 227 154 208 191 200 214 264 292 337 228 258 266 283 273 263 252 295 310 252 261 264 253 264 258 194 176 176 190 171 159 173 175 169 162 168 174 153 151
326 328 328 329 329 327 325 324 324 324 324 314 308 345 54 348 20 314 305 244 221 229 246 249 196 222 236 273 302 25 11 315 209 289 179 169 115 121 231 161 170 235 202 188 171 269 118 215 237 224 157 176 209 204 189 274 329 245 284 291 286 249 267 276 291 311 286 232 288 274 299 271 256 264 187 168 158 183 183 181 179 177 175 171 172 165 153 143
327 327 329 329 328 327 324 323 324 321 329 179 310 56 277 223 252 235 73 304 295 217 228 240 236 253 248 247 255 345 358 296 309 286 287 151 176 148 240 177 169 208 277 64 9 253 196 223 253 163 202 202 246 184 154 191 251 248 218 274 292 272 267 280 270 261 277 122 256 275 270 271 263 255 145 167 172 185 187 180 183 171 168 175 177 162 150 138
328 328 329 330 328 325 323 322 319 326 108 91 62 243 230 226 319 322 340 290 274 230 216 228 236 245 258 244 234 145 214 218 244 283 260 133 135 192 150 167 178 190 201 144 191 217 264 271 244 232 170 178 262 227 172 139 103 220 273 248 251 273 336 302 296 294 305 198 273 293 284 273 288 272 174 190 174 186 193 189 177 172 171 178 179 167 151 140
328 330 330 329 327 325 322 323 317 71 131 263 266 225 235 311 300 311 123 227 288 267 194 218 199 224 237 200 194 173 199 209 169 264 185 134 160 162 136 172 167 176 212 180 198 205 224 242 147 160 165 168 225 237 181 194 259 240 192 211 251 276 240 204 277 334 312 304 266 287 323 301 305 288 94 218 194 172 195 170 135 129 137 115 106 127 134 144
328 329 329 328 328 326 324 319 0 327 303 279 230 246 247 259 276 206 115 319 299 283 237 266 164 245 239 107 137 166 212 250 211 214 189 155 159 106 216 171 130 206 199 189 195 222 255 251 99 110 167 178 198 255 219 162 235 285 223 198 216 232 254 266 275 323 7 322 317 119 357 306 290 290 138 168 116 179 169 161 173 168 153 150 149 140 134 149
326 327 329 328 328 332 320 322 333 328 313 272 232 259 324 348 316 226 108 84 295 277 339 294 144 272 124 189 135 142 108 234 200 213 166 189 170 161 122 210 153 210 202 155 189 202 228 165 162 182 173 195 194 214 215 161 206 222 266 195 213 226 233 253 270 205 296 272 279 60 99 271 326 313 143 164 153 155 163 170 162 157 154 152 151 152 150 156
325 324 326 327 329 338 3 273 358 316 357 298 301 333 333 339 324 212 43 345 349 246 153 177 150 247 195 177 146 139 93 262 169 191 189 169 172 137 145 212 197 108 150 165 44 258 192 189 182 171 170 184 203 249 214 160 162 232 236 177 200 213 223 232 226 209 240 270 275 88 147 186 300 350 353 132 139 147 152 160 160 163 154 149 157 161 160 161
320 321 323 324 325 332 279 295 318 303 233 266 346 332 325 336 322 65 79 0 311 256 1 225 224 159 191 168 167 175 198 125 111 228 187 185 141 191 192 190 180 193 179 102 210 257 171 229 178 195 167 166 215 219 192 154 149 224 221 160 203 208 213 215 198 199 232 64 289 327 353 76 253 274 352 94 104 148 163 167 168 161 156 157 151 155 156 158
317 318 320 322 319 312 281 239 241 247 240 328 322 317 325 331 105 108 105 96 256 330 239 68 270 102 37 140 198 242 351 191 133 206 154 133 187 127 204 207 199 190 193 156 226 269 280 194 197 181 156 215 233 242 154 166 184 254 212 168 214 215 200 184 164 129 311 93 275 278 198 194 288 286 20 5 102 158 178 177 172 166 162 162 152 156 161 163
314 316 317 319 317 327 344 213 232 240 302 315 310 304 320 60 38 42 15 258 291 47 0 256 33 335 137 157 240 244 279 300 140 58 136 159 220 141 233 135 156 129 222 288 239 229 242 280 159 130 200 215 229 242 178 178 208 96 146 192 231 55 35 21 75 109 73 294 253 245 245 156 283 265 105 69 207 194 154 153 149 150 144 156 157 160 166 171
314 312 312 311 286 281 303 270 254 248 251 296 302 305 55 39 121 97 195 231 308 266 335 9 7 5 31 259 229 256 262 298 15 122 74 65 144 145 22 45 55 53 35 346 286 293 321 295 252 231 205 232 200 262 195 196 214 167 155 192 235 278 12 53 347 40 132 267 258 251 190 166 158 280 275 226 283 193 173 166 168 170 170 169 168 171 174 169
312 309 304 296 255 249 216 232 229 77 354 331 346 45 76 147 2 163 214 329 0 312 47 322 349 337 310 231 233 236 201 147 192 139 144 162 152 177 224 193 166 177 285 216 252 344 291 244 233 293 217 207 219 218 308 107 162 149 85 47 141 260 30 295 21 228 196 202 246 328 178 101 200 217 271 322 263 222 196 176 177 174 172 170 174 172 168 164
311 308 302 285 255 224 235 247 312 323 339 336 55 52 71 104 212 265 295 342 240 32 303 327 324 319 302 314 222 217 224 199 256 191 139 149 145 207 215 177 199 158 190 240 215 300 276 279 304 276 312 217 155 181 218 92 181 137 169 147 97 179 45 251 276 204 307 281 239 255 284 186 250 285 326 321 276 225 209 202 184 175 170 164 161 159 160 163
312 310 298 240 219 217 229 226 239 310 325 18 71 43 59 98 239 234 244 272 254 322 350 351 325 325 352 22 284 149 192 299 154 227 147 160 151 191 253 256 142 232 186 168 180 192 353 335 288 179 264 232 160 190 185 178 169 194 145 148 175 143 162 237 208 197 205 202 277 305 116 241 157 265 336 306 306 168 172 164 133 122 109 105 89 76 52 17
313 300 257 270 237 230 222 212 182 193 42 70 57 87 141 235 222 212 261 321 312 336 343 328 316 332 312 354 308 339 133 228 160 127 144 124 199 176 186 220 218 120 129 141 262 79 199 204 253 217 235 15 228 220 145 106 103 203 162 83 84 223 137 210 202 165 214 200 32 356 145 170 162 270 341 351 46 71 96 113 118 126 129 118 114 122 174 203
320 287 184 252 230 247 180 188 161 149 92 71 80 84 195 195 284 132 330 277 336 350 321 329 322 16 296 331 302 0 352 95 280 86 256 180 206 191 214 192 185 187 142 174 198 186 12 268 268 309 262 215 256 159 242 129 193 251 107 167 210 174 128 81 40 39 92 58 7 212 1 334 305 359 15 355 71 101 121 122 123 135 127 117 156 179 184 194
317 327 51 264 253 135 146 151 156 131 70 97 93 227 209 280 202 179 332 5 277 296 349 29 305 352 344 325 324 341 317 47 297 132 228 240 286 210 166 273 158 179 192 145 292 193 153 250 281 22 302 290 220 202 182 197 148 91 143 243 110 78 119 129 193 338 63 163 250 38 200 275 46 241 336 343 102 126 136 135 123 122 110 126 237 263 55 44
328 328 269 277 212 127 139 145 130 63 81 82 145 223 201 336 258 358 288 336 337 340 9 205 270 36 313 16 310 308 312 321 272 36 215 202 194 196 100 139 329 146 193 157 174 278 135 288 298 277 246 265 346 89 1 330 6 159 196 197 110 268 239 319 94 85 124 189 241 0 292 258 155 243 337 302 18 158 154 145 142 150 168 176 175 119 77 77
282 342 57 34 136 139 140 144 75 78 58 63 245 7 259 228 265 265 289 292 223 266 291 240 186 301 1 323 246 297 273 259 221 181 113 263 121 231 131 170 31 17 38 129 151 219 61 190 298 289 195 319 5 66 221 294 326 25 120 61 309 104 162 138 202 171 113 201 78 282 67 210 225 223 286 278 290 357 347 283 176 171 172 117 77 84 67 43
44 39 27 7 126 126 141 110 56 47 69 99 218 229 218 275 271 266 278 275 297 5 249 270 230 288 291 233 253 268 295 188 180 258 138 273 152 258 143 20 155 60 69 93 135 167 154 138 238 278 313 23 318 344 198 180 133 356 100 311 34 8 200 108 60 106 164 165 176 152 229 273 264 236 271 272 306 59 57 16 342 331 88 105 121 131 138 139
251 103 250 143 129 143 103 49 46 50 124 248 154 226 292 260 315 295 283 272 255 235 216 277 290 241 249 339 319 242 269 309 194 202 183 283 163 344 237 140 102 162 22 18 50 14 82 68 197 304 347 341 233 253 199 154 138 139 146 107 200 134 115 157 254 23 78 100 189 134 227 272 269 334 313 329 133 89 64 61 23 12 26 41 38 106 106 112
66 52 7 65 156 132 86 72 313 206 114 238 260 273 288 318 276 278 314 276 225 274 258 233 262 237 238 225 213 293 309 313 263 189 269 169 248 151 242 164 175 165 126 176 148 242 140 161 102 294 223 210 248 337 4 335 102 110 109 27 146 129 106 97 129 267 44 58 112 144 113 274 263 316 325 49 75 84 56 36 92 67 32 11 40 82 77 82
59 134 265 137 179 86 68 42 303 34 277 234 298 282 272 283 238 288 324 298 336 226 297 249 253 327 273 206 290 231 200 261 224 229 217 160 230 228 301 119 104 137 104 258 18 285 85 62 31 302 311 302 323 335 325 303 335 56 17 84 73 10 245 178 167 183 139 188 93 17 67 252 292 19 344 69 92 80 65 41 46 92 97 56 28 39 53 50
136 131 22 45 83 115 80 230 304 293 271 318 20 267 269 247 300 321 280 306 245 337 191 268 319 212 260 303 262 258 293 86 40 27 18 0 39 318 25 53 46 57 98 228 137 255 101 304 115 51 9 338 342 336 349 344 43 91 120 51 31 243 87 177 112 71 101 222 171 123 207 236 274 26 48 68 94 89 87 66 59 71 68 78 94 90 113 108
97 316 280 306 3 71 156 182 154 198 282 300 337 335 342 333 238 259 236 259 288 226 351 280 220 288 305 308 309 291 340 98 224 332 122 51 29 354 12 43 54 94 92 188 121 88 97 204 102 132 157 164 218 253 261 270 272 310 290 91 41 56 18 49 303 34 136 317 94 123 183 254 112 95 88 97 103 94 93 106 96 86 78 81 75 102 93 89
107 122 309 346 9 23 67 62 118 140 128 329 21 289 290 306 311 291 228 271 225 308 207 264 301 37 303 21 5 6 347 354 78 322 28 8 338 18 339 46 54 59 46 64 42 79 129 75 74 140 148 177 213 229 249 125 35 61 318 50 113 99 69 93 114 70 53 184 56 263 162 146 156 159 138 117 112 120 108 75 92 97 95 82 67 57 55 51
149 95 157 166 333 36 37 353 65 69 258 148 60 344 336 318 268 313 324 34 339 339 305 45 330 37 319 39 300 2 346 336 1 65 16 4 317 4 329 39 39 24 19 38 12 76 65 68 5 83 88 162 272 249 284 177 124 40 26 346 335 58 87 74 85 163 162 84 340 318 141 133 158 145 134 125 104 83 77 85 78 70 65 75 76 71 67 59
72 241 117 190 128 277 43 325 73 74 328 118 259 90 309 339 349 10 323 7 307 325 61 331 10 29 327 229 99 63 334 344 25 30 328 1 348 345 32 12 56 342 38 40 15 99 117 101 313 101 359 30 15 15 17 78 57 83 50 26 9 324 59 96 116 172 128 144 188 161 115 103 98 95 93 72 58 70 61 54 58 70 68 67 65 62 64 64
124 186 137 304 92 251 159 167 122 111 178 160 233 333 327 9 349 289 271 315 358 348 38 61 335 338 342 351 108 126 22 77 6 327 42 343 17 336 29 343 352 17 47 60 24 100 91 62 329 11 66 27 10 27 21 63 94 52 38 28 19 45 79 99 92 107 113 123 133 119 96 67 18 3 42 63 80 81 73 60 63 60 59 63 66 66 68 62
357 85 308 1 90 107 283 36 77 52 42 329 18 293 249 329 350 339 339 55 348 313 338 81 325 334 345 5 63 98 103 154 149 278 331 21 329 36 354 154 290 330 44 76 105 322 101 278 114 34 58 8 1 32 38 13 16 79 24 27 27 22 61 92 109 89 83 66 90 106 98 74 8 19 81 73 83 93 81 70 70 70 63 66 73 71 67 67
205 165 151 111 76 324 353 32 25 87 43 341 50 293 340 293 296 210 279 222 163 280 324 319 295 318 330 22 52 150 201 184 184 197 250 283 285 262 73 278 106 327 5 0 32 337 67 144 45 85 86 0 353 9 352 352 342 69 28 9 3 359 53 335 55 180 133 136 124 112 104 124 98 61 81 66 66 74 86 83 82 68 51 54 69 64 59 55
54 297 79 104 85 314 49 354 17 55 13 229 177 270 279 315 338 129 343 270 214 191 223 273 282 308 307 11 331 314 266 211 218 240 199 230 231 262 247 258 250 228 226 118 297 73 95 129 109 91 78 331 6 37 4 333 17 11 356 344 325 291 247 27 28 26 13 146 134 165 174 81 92 80 91 64 63 61 60 51 64 60 53 63 64 58 53 54